RH
29 35 40 36 42 38 40 44 44 33 26 28 25 28 27 24 33 29 22 20 21 20 17 17 16 16 15 15 15 14 14 14 20 51 59 65 56 56 66 64 59 54 53 51
62 56 42 34 32 31 34 52 51 39 31 31 27 24 22 23 27 31 36 30 21 20 18 20 20 20 19 20 19 18 18 16 16 20 28 56 56 56 60 69 78 72 61 57
72 48 42 46 41 40 33 33 44 57 42 29 26 26 19 18 28 33 36 34 29 24 27 27 30 30 32 30 30 27 20 21 20 21 29 62 74 75 58 58 64 73 69 69
66 50 65 71 63 46 56 36 34 59 63 55 42 56 51 43 39 34 29 66 66 73 68 50 46 60 61 63 56 43 30 35 44 59 77 78 52 56 48 45 49 57 69 68
58 52 57 54 54 49 62 34 38 56 72 48 32 71 51 48 40 67 81 85 88 89 85 77 69 73 67 69 66 73 79 67 74 98 91 70 65 62 61 53 52 56 64 67
56 45 54 55 46 47 40 54 60 65 63 71 36 58 67 92 92 86 82 88 92 91 90 87 85 80 70 64 60 64 76 90 99 99 99 98 71 70 53 54 58 57 57 66
65 65 58 51 66 50 50 62 88 81 90 82 49 67 60 94 92 93 93 94 98 100 100 99 96 87 84 75 59 53 56 66 83 98 100 100 91 66 63 53 61 82 55 57
94 81 48 36 57 42 47 63 82 70 74 68 55 86 100 95 94 87 92 95 97 98 99 100 100 99 94 91 83 72 56 51 59 70 87 98 100 92 72 54 48 66 49 48
95 75 41 52 57 44 60 65 44 67 64 91 67 100 94 94 96 100 96 98 99 100 100 100 100 100 99 95 95 92 96 99 98 71 66 63 75 84 72 70 64 57 53 50
74 96 57 59 55 62 57 65 78 83 71 83 90 86 97 95 100 100 99 98 100 100 100 100 100 100 100 100 98 96 95 99 98 99 89 64 58 56 68 67 59 59 62 57
83 85 69 63 60 66 77 85 75 61 70 96 96 97 100 99 100 99 100 100 99 100 100 100 100 100 100 99 96 95 96 98 99 99 98 90 62 54 47 58 62 56 63 61
81 99 98 87 79 76 83 67 63 76 73 91 93 98 100 100 100 97 98 99 98 99 100 100 100 100 100 100 100 100 97 98 99 100 100 98 99 89 92 64 58 62 60 64
76 97 93 77 80 67 80 75 87 87 95 98 97 99 100 100 99 99 99 99 99 98 100 99 99 100 99 99 98 99 98 99 100 100 100 100 100 100 100 100 79 67 67 66
83 100 99 96 99 99 100 72 82 79 93 96 97 97 95 94 93 93 99 99 99 100 100 100 99 99 99 100 98 99 100 100 100 100 100 100 99 99 100 100 100 95 78 75
87 98 97 96 100 89 98 90 99 92 96 94 97 94 96 94 94 97 100 99 99 100 100 99 100 100 100 98 98 99 100 100 100 100 99 99 100 99 100 100 100 100 99 82
70 98 100 98 80 78 95 97 98 94 87 93 78 92 94 97 98 95 99 99 99 100 100 100 100 100 99 100 100 100 100 100 100 97 99 100 100 99 100 99 100 100 100 100
77 79 94 97 87 84 83 98 96 93 96 90 84 93 93 92 92 97 98 98 100 100 99 100 100 100 100 99 100 99 99 97 96 99 100 95 98 99 99 99 100 100 100 100
83 81 77 97 89 88 98 91 92 91 95 95 88 93 94 94 98 97 98 100 100 98 90 91 98 99 99 98 94 95 93 95 94 94 98 99 99 100 100 92 95 99 98 100
67 81 98 95 90 96 87 85 92 89 99 97 96 95 97 99 98 97 97 97 99 94 90 86 94 98 99 98 96 97 89 89 93 97 97 99 99 100 100 99 99 99 96 93
66 69 88 93 82 93 94 86 96 78 92 96 91 91 87 97 93 95 91 90 96 100 93 85 88 98 97 97 96 90 95 93 92 97 100 100 99 100 100 99 99 100 99 100
85 87 92 89 92 89 88 97 100 90 95 99 96 92 87 90 98 93 86 90 93 92 87 85 91 98 99 96 93 92 92 100 98 90 93 93 95 99 100 100 99 99 100 100
89 92 92 85 81 90 97 78 85 98 99 98 97 95 99 99 84 84 86 88 88 86 86 85 88 92 96 95 92 91 94 98 100 88 84 87 93 96 98 99 100 100 99 99
92 86 90 93 93 98 99 100 99 92 77 85 97 98 81 82 84 85 89 90 89 86 88 88 89 88 89 91 92 92 96 95 93 87 87 86 82 84 90 91 92 94 96 98
84 77 93 92 98 96 99 83 89 71 73 78 85 83 77 82 85 88 90 91 87 84 84 85 87 88 89 88 88 90 90 92 94 92 89 89 86 85 83 86 88 90 92 95
90 83 93 95 96 98 99 86 74 69 68 70 74 76 79 79 86 86 87 86 83 80 77 78 82 90 92 90 86 84 85 82 86 89 93 91 89 88 90 91 92 96 100 100
84 96 98 97 86 90 99 83 76 76 72 71 71 76 81 80 81 81 81 86 82 76 71 71 75 77 82 84 83 82 83 84 85 85 88 92 93 91 89 93 96 97 100 99
Wind_Speed
3 1 4 13 9 12 13 15 19 18 18 21 19 22 20 22 18 20 29 30 27 33 35 35 30 32 31 32 35 35 34 33 36 45 45 45 41 36 35 34 32 30 28 26
1 7 15 8 12 12 16 15 18 20 23 14 17 23 24 14 19 27 23 25 29 32 36 28 22 22 22 22 27 32 33 32 35 40 42 49 45 42 38 35 32 29 30 28
6 11 8 13 13 12 15 17 20 18 22 14 15 18 20 22 22 29 28 30 30 29 16 13 8 9 10 15 17 18 22 32 34 39 44 50 46 43 38 34 33 32 32 31
8 6 5 8 12 12 18 12 15 16 15 13 2 11 11 13 18 16 19 7 15 12 15 14 10 10 12 10 7 12 21 28 34 40 41 45 49 47 41 40 38 39 35 34
9 7 8 14 17 10 16 11 11 20 15 9 17 4 6 9 5 8 14 22 28 23 20 21 16 13 14 12 12 9 15 23 28 29 35 39 42 43 42 43 40 41 36 35
22 24 10 20 18 12 11 3 7 13 6 5 15 8 5 5 9 14 17 24 26 24 21 21 17 15 15 13 13 11 8 12 17 23 29 33 37 39 40 37 42 41 36 35
8 7 8 17 13 12 5 3 3 3 1 5 7 7 7 14 16 16 16 22 23 25 23 25 24 22 20 17 13 9 7 5 7 20 25 32 35 36 35 40 47 40 33 36
3 7 3 3 8 7 7 7 4 3 3 4 8 3 5 15 20 19 23 22 24 27 25 25 26 27 24 21 17 13 7 3 5 9 20 30 36 38 38 38 41 41 36 33
3 5 3 3 1 6 4 6 10 4 6 2 5 7 14 16 12 15 26 26 28 30 27 27 33 31 27 25 22 18 14 11 10 10 16 21 30 36 41 40 42 42 39 36
4 6 2 5 5 7 7 1 1 1 3 5 4 6 7 13 15 11 15 20 20 22 27 32 37 36 31 26 23 19 16 15 12 11 11 21 25 31 42 44 43 43 42 40
7 4 7 8 4 5 2 2 5 3 1 2 2 4 6 11 12 12 11 21 28 26 26 34 40 40 36 31 27 23 20 16 11 10 9 13 22 28 34 41 44 42 43 41
3 3 4 4 11 7 3 5 4 3 3 2 3 3 4 7 9 13 18 21 24 23 22 36 40 40 40 39 35 31 24 22 18 15 11 7 9 17 21 30 29 39 41 39
3 2 6 3 2 3 3 3 4 6 2 4 0 3 7 8 9 17 18 21 25 26 20 42 40 41 42 41 41 39 31 25 23 20 13 9 3 8 15 23 25 27 32 34
1 2 6 4 4 7 5 5 9 6 4 3 5 6 9 10 12 16 18 22 22 20 36 39 40 41 38 38 41 40 39 31 26 24 20 15 10 6 8 17 22 27 28 30
3 5 11 20 16 20 16 4 10 14 9 5 5 6 9 11 12 18 19 25 26 29 32 33 33 34 36 38 36 35 37 39 34 30 26 22 18 8 8 7 14 17 23 27
3 1 3 6 11 25 23 23 18 21 15 11 10 9 8 12 12 17 20 21 22 24 26 26 29 31 33 33 33 33 34 36 39 39 35 30 24 16 11 7 9 15 19 25
3 3 2 4 5 7 14 16 16 16 16 5 6 5 5 9 14 18 16 18 18 21 22 25 28 28 28 29 32 32 32 32 34 36 39 37 34 30 23 14 7 9 14 22
6 5 2 1 2 6 2 11 10 20 15 12 12 8 8 14 18 19 20 18 17 22 27 26 23 24 24 24 24 28 29 30 31 33 34 35 36 35 32 28 25 18 12 4
6 1 2 2 5 5 4 8 6 7 9 12 8 8 10 12 9 17 19 20 16 20 24 24 20 20 20 22 23 24 28 30 31 32 30 30 30 30 31 33 30 30 27 22
6 11 3 2 3 2 4 12 11 6 5 11 11 10 8 8 3 4 14 15 15 16 20 23 20 15 16 21 23 24 27 32 35 32 28 26 25 25 26 25 24 25 24 25
5 4 6 4 3 3 11 14 4 1 1 7 9 12 15 6 7 8 8 12 13 17 20 19 18 20 21 20 22 25 27 30 30 28 26 24 23 22 20 20 20 19 20 19
4 4 4 3 4 3 20 3 3 7 8 9 9 10 12 13 11 9 10 14 16 19 19 20 20 22 21 21 21 24 26 25 24 25 25 25 24 22 20 18 17 16 15 15
4 3 2 5 3 5 10 14 13 11 11 9 11 14 14 12 10 9 10 12 14 17 19 19 20 21 22 23 24 24 23 22 23 23 25 25 24 22 20 19 18 18 17 17
2 2 3 2 4 9 9 12 10 11 14 13 13 14 10 12 9 9 10 12 16 19 20 19 18 20 22 24 23 22 21 20 21 22 23 23 25 24 22 20 19 17 17 18
2 4 3 4 8 10 9 10 12 12 10 11 11 9 9 6 9 9 11 13 16 17 18 18 19 20 20 21 22 22 22 21 21 21 22 22 22 23 22 21 20 19 18 18
4 1 1 2 12 8 8 9 7 7 8 7 6 8 8 7 9 8 11 12 13 16 17 17 18 18 19 19 20 21 22 22 22 21 22 21 21 20 20 18 15 14 12 12
Wind_Direction
230 252 270 234 229 256 268 264 266 266 264 273 271 288 283 292 285 276 263 255 251 256 254 253 249 249 245 243 243 241 237 238 232 234 235 232 231 232 229 228 228 227 228 229
316 221 240 244 263 264 265 264 267 275 266 274 269 265 271 282 279 279 270 270 252 254 267 254 251 249 250 246 244 240 234 236 233 229 234 237 234 231 233 232 230 228 233 234
210 253 282 251 246 253 262 254 261 266 289 278 268 275 278 277 268 266 265 255 263 259 235 255 296 271 254 241 237 228 225 228 238 235 232 232 233 230 232 235 240 233 235 236
251 270 231 241 242 232 259 262 275 281 292 276 329 294 281 282 273 278 264 82 66 92 127 132 150 109 113 114 161 200 209 215 226 229 229 233 234 229 229 234 235 237 232 234
248 272 271 273 256 230 257 254 244 265 266 268 268 254 274 260 291 55 57 67 65 72 83 93 98 83 89 89 104 135 184 201 214 215 227 233 237 241 235 231 233 237 234 232
264 270 258 254 271 253 249 247 259 243 244 246 257 212 295 46 358 70 47 36 50 54 56 67 71 68 70 73 87 102 132 191 204 207 213 229 238 237 241 241 243 238 236 236
310 278 262 243 254 272 205 101 303 335 43 247 222 187 276 72 60 45 47 31 33 40 32 42 47 53 51 50 60 69 88 126 188 214 216 218 230 237 239 233 238 249 243 243
310 323 221 191 199 202 202 174 195 258 221 258 157 213 49 51 46 53 54 41 36 35 29 29 30 41 41 40 41 37 13 322 238 230 229 226 226 231 231 234 235 246 253 257
296 268 292 155 256 171 265 197 218 279 289 329 171 120 65 27 29 24 43 30 30 31 25 28 33 37 35 36 35 30 16 3 336 272 251 241 237 231 234 232 236 242 248 255
260 290 266 278 264 221 203 286 88 295 240 232 85 46 15 16 17 9 39 35 23 24 23 31 37 36 36 34 36 36 24 11 348 318 277 248 245 240 240 237 238 242 246 250
265 228 276 294 238 241 138 294 211 185 128 324 16 75 25 5 21 15 24 37 24 20 19 34 40 41 38 36 33 33 26 15 357 336 323 271 242 238 239 241 242 244 245 248
251 270 282 288 279 287 207 225 170 132 256 70 113 91 34 36 24 24 28 29 36 22 19 42 43 43 41 39 37 35 31 23 11 4 1 331 284 237 246 251 251 246 249 249
320 320 302 282 350 92 288 314 91 112 121 52 166 97 58 36 35 36 38 26 36 28 14 48 42 41 40 38 37 35 32 30 22 13 7 3 306 244 230 237 249 249 247 248
8 304 276 264 330 256 240 196 59 98 65 55 41 86 30 25 34 31 30 29 37 22 30 40 37 39 37 37 39 36 34 33 33 25 17 15 3 353 254 242 245 255 248 244
96 359 46 45 18 52 48 132 115 96 76 47 72 79 44 27 21 25 23 26 32 27 27 32 32 35 34 35 33 33 34 34 35 39 30 23 17 356 358 271 248 242 258 254
330 326 324 45 37 46 47 43 63 80 91 93 101 73 49 46 37 33 26 25 35 27 26 24 31 34 34 33 30 31 33 34 35 39 42 36 29 14 7 293 265 247 242 241
301 316 353 45 6 311 48 29 48 55 39 48 62 82 75 53 41 31 21 28 39 31 27 29 31 31 32 32 33 31 32 35 36 37 40 43 44 39 28 10 341 240 227 217
302 345 63 92 265 44 64 19 48 63 46 61 88 98 106 91 60 45 34 27 34 29 28 29 29 30 29 29 29 32 33 34 36 38 36 37 43 47 47 45 40 23 10 27
1 301 88 70 60 123 58 13 341 20 48 37 57 159 160 144 63 39 33 43 39 25 23 23 27 29 27 27 27 33 32 36 34 33 33 33 33 37 44 50 47 49 40 32
4 16 84 83 75 90 46 333 323 296 57 34 42 35 37 214 64 20 37 43 42 26 17 20 28 34 36 32 27 30 33 31 31 29 27 27 30 31 32 36 46 50 50 49
345 12 33 17 98 95 355 323 349 327 56 76 65 54 53 81 87 96 52 44 29 23 21 23 31 35 36 30 27 33 33 30 26 25 27 28 25 24 29 34 35 41 58 63
23 350 20 342 67 49 354 38 79 108 89 90 95 90 88 102 97 72 45 32 23 21 22 29 35 37 36 34 31 33 35 27 24 27 29 29 28 27 23 26 38 44 42 48
43 42 58 19 84 81 38 60 88 109 101 100 117 126 129 117 94 66 49 35 30 29 31 34 37 39 39 36 34 34 31 25 21 26 29 30 29 29 28 27 30 30 36 43
85 69 87 141 112 109 93 79 98 105 96 100 117 127 115 110 98 81 59 45 34 31 33 33 36 38 37 35 34 34 29 30 24 24 27 27 27 29 32 35 38 40 41 37
330 348 123 84 118 108 94 102 115 106 97 94 100 96 86 70 68 51 46 38 34 31 32 32 33 31 31 30 29 28 26 25 28 25 23 23 25 25 27 32 39 44 46 44
5 2 69 201 156 113 133 130 143 133 110 95 95 101 83 59 58 36 39 34 33 31 30 31 32 29 26 21 20 21 22 20 21 22 20 18 17 22 27 30 34 37 48 50